Weather History for KBIV - October, 2012

Change the Weather History Date:

Thursday, October 4, 2012

  Actual Average Record
Temperature  
Mean Temperature 69 °F 56 °F  
Max Temperature 78 °F 66 °F 89 °F (1951)
Min Temperature 59 °F 47 °F 26 °F (1965)
Degree Days  
Heating Degree Days 0 9  
Month to date heating degree days 20 35  
Since 1 July heating degree days 161 165  
Cooling Degree Days 4 1  
Month to date cooling degree days 4 4  
Year to date cooling degree days 1063 686  
Growing Degree Days 18 (Base 50)    
Moisture  
Dew Point 57 °F    
Average Humidity 69    
Maximum Humidity 97    
Minimum Humidity 41    
Precipitation  
Precipitation 0.26 in 0.10 in 3.66 in (1954)
Month to date precipitation 0.46 0.40  
Year to date precipitation 22.96 27.51  
Sea Level Pressure  
Sea Level Pressure 30.03 in    
Wind  
Wind Speed 8 mph (SW)    
Max Wind Speed 24 mph    
Max Gust Speed 32 mph    
Visibility 8 miles    
Events Rain    
T = Trace of Precipitation, MM = Missing Value Source: NWS Daily Summary

Daily Weather History Graph

Daily Weather History Graph

Search for Another Location

Airport or City:

Trip Planner

Search our weather history database for the weather conditions in past years. The results will help you decide how hot, cold, wet, or windy it might be!

Date:

Astronomy

Oct. 04, 2012 Rise Set
Actual Time 7:45 AM EDT 7:19 PM EDT
Civil Twilight 7:17 AM EDT 7:47 PM EDT
Nautical Twilight 6:44 AM EDT 8:20 PM EDT
Astronomical Twilight 6:11 AM EDT 8:53 PM EDT
Moon 9:48 PM EDT (10/4) 12:08 PM EDT (10/4)
Length of Visible Light 12h 30m
Length of Day
11h 34m
Waning Gibbous, 82% of the Moon is Illuminated
Oct 4
Waning Gibbous
Oct 8
Last Quarter
Oct 15
New
Oct 21
First Quarter
Oct 29
Full

Hourly Weather History & Observations

Time (EDT) Temp. Dew Point Humidity Pressure Visibility Wind Dir Wind Speed Gust Speed Precip Events Conditions
12:53 AM 61.0 °F 57.9 °F 90% 30.01 in 6.0 mi South 9.2 mph - 0.01 in   Overcast
1:53 AM 62.1 °F 59.0 °F 90% 30.02 in 5.0 mi SW 8.1 mph - 0.12 in Rain Rain
2:39 AM 62.6 °F 59.0 °F 88% 30.03 in 7.0 mi West 9.2 mph 17.3 mph 0.08 in Rain Light Rain
2:53 AM 62.1 °F 57.9 °F 86% 30.03 in 10.0 mi West 6.9 mph - 0.08 in   Overcast
3:04 AM 62.6 °F 59.0 °F 88% 30.03 in 10.0 mi West 6.9 mph - N/A   Overcast
3:14 AM 62.6 °F 57.2 °F 82% 30.03 in 10.0 mi West 5.8 mph - N/A   Overcast
3:37 AM 62.6 °F 57.2 °F 82% 30.03 in 10.0 mi WSW 4.6 mph - N/A   Overcast
3:53 AM 62.1 °F 59.0 °F 90% 30.03 in 8.0 mi SSW 4.6 mph - N/A   Overcast
4:05 AM 60.8 °F 59.0 °F 94% 30.03 in 7.0 mi South 3.5 mph - N/A   Overcast
4:12 AM 60.8 °F 59.0 °F 94% 30.03 in 7.0 mi Calm Calm - N/A   Overcast
4:22 AM 62.6 °F 59.0 °F 88% 30.03 in 6.0 mi Calm Calm - N/A   Overcast
4:49 AM 62.6 °F 59.0 °F 88% 30.03 in 4.0 mi SW 4.6 mph - N/A   Overcast
4:53 AM 62.1 °F 59.0 °F 90% 30.04 in 4.0 mi SSW 4.6 mph - 0.01 in Rain Light Rain
5:19 AM 62.6 °F 57.2 °F 82% 30.04 in 6.0 mi SW 8.1 mph - 0.03 in Rain Rain
5:53 AM 61.0 °F 59.0 °F 93% 30.04 in 4.0 mi South 3.5 mph - 0.04 in Rain Light Rain
6:19 AM 60.8 °F 59.0 °F 94% 30.04 in 5.0 mi South 4.6 mph - 0.01 in   Overcast
6:29 AM 62.6 °F 59.0 °F 88% 30.04 in 5.0 mi SW 4.6 mph - 0.01 in   Overcast
6:44 AM 62.6 °F 57.2 °F 82% 30.04 in 8.0 mi SW 8.1 mph - 0.01 in   Overcast
6:53 AM 62.1 °F 57.9 °F 86% 30.04 in 9.0 mi SSW 5.8 mph - 0.01 in   Overcast
7:53 AM 60.1 °F 57.0 °F 90% 30.04 in 8.0 mi South 3.5 mph - N/A   Overcast
8:53 AM 61.0 °F 57.0 °F 87% 30.04 in 7.0 mi South 5.8 mph - N/A   Clear
9:53 AM 63.0 °F 57.9 °F 84% 30.05 in 10.0 mi SSW 12.7 mph - N/A   Clear
10:53 AM 66.0 °F 57.0 °F 73% 30.05 in 10.0 mi SSW 15.0 mph - N/A   Clear
11:53 AM 69.1 °F 57.0 °F 65% 30.04 in 10.0 mi SSW 17.3 mph 21.9 mph N/A   Clear
12:53 PM 71.1 °F 55.0 °F 57% 30.04 in 10.0 mi SW 15.0 mph 20.7 mph N/A   Clear
1:53 PM 73.9 °F 53.1 °F 48% 30.01 in 10.0 mi SW 18.4 mph 24.2 mph N/A   Clear
2:53 PM 75.9 °F 50.0 °F 40% 29.99 in 10.0 mi SSW 20.7 mph 27.6 mph N/A   Clear
3:53 PM 75.9 °F 50.0 °F 40% 29.97 in 10.0 mi SSW 21.9 mph 28.8 mph N/A   Mostly Cloudy
4:53 PM 75.0 °F 52.0 °F 44% 29.96 in 10.0 mi SSW 15.0 mph - N/A   Mostly Cloudy
6:53 PM 68.0 °F 60.1 °F 76% 29.99 in 10.0 mi West 12.7 mph - 0.00 in   Overcast
7:53 PM 64.9 °F 57.0 °F 75% 30.00 in 10.0 mi West 10.4 mph 19.6 mph 0.00 in   Overcast
9:53 PM 61.0 °F 53.1 °F 75% 30.03 in 10.0 mi WSW 13.8 mph - 0.00 in   Overcast
10:53 PM 61.0 °F 48.9 °F 64% 30.04 in 10.0 mi West 11.5 mph 18.4 mph N/A   Overcast
11:53 PM 59.0 °F 46.9 °F 64% 30.05 in 10.0 mi West 11.5 mph 21.9 mph 0.00 in Rain Light Rain